[[[{"header":{"parameterUnit":"kt","parameterCategory":2,"dx":1,"dy":1,"la1":30.253999710083008,"la2":30.299108505249023,"lo1":-89.0895004272461,"lo2":-89.04439544677734,"nx":28,"ny":28,"refTime":"2022-09-20T09:00:00:Z","depth":0,"parameterNumber":1,"parameterNumberName":"U-component_of_WINDS"},"data":[-4.9574,-4.9777,-4.9768,-4.9995,-5.0024,-5.0178,-5.0229,-5.0294,-5.0343,-5.0523,-5.0624,-5.0633,-5.0676,-5.0793,-5.0901,-5.0902,-5.0951,-5.103,-5.1019,-5.0674,-5.0626,-5.058,-5.0533,-5.1039,-5.104,-5.138,-5.1383,-5.1385,-4.9322,-4.9354,-4.947,-4.9578,-4.9677,-4.9595,-4.9672,-4.9762,-4.99,-4.9961,-5.006,-5.0217,-5.0338,-5.0355,-5.047,-5.0563,-5.0532,-5.0596,-5.0592,-5.06,-5.023,-5.018,-5.0619,-5.0619,-5.0619,-5.0619,-5.0619,-5.0619,-4.8861,-4.8983,-4.9042,-4.9169,-4.9219,-4.9291,-4.9405,-4.9414,-4.9527,-4.9647,-4.9611,-4.9767,-4.9825,-4.9958,-4.9999,-5.0119,-5.0047,-5.0113,-5.0131,-5.015,-5.0174,-4.9692,-5.0137,-5.0135,-5.0134,-5.0133,-5.0132,0,-4.8522,-4.8506,-4.8617,-4.8727,-4.8818,-4.8901,-4.8975,-4.9044,-4.9004,-4.9099,-4.9235,-4.9312,-4.9462,-4.9589,-4.9693,-4.9722,-4.9649,-4.9638,-4.9685,-4.9709,-4.9717,-4.972,-4.9121,-4.9626,-4.9622,-4.9619,-4.9616,-4.9615,-4.8062,-4.8203,-4.826,-4.8339,-4.8377,-4.8506,-4.858,-4.8534,-4.8615,-4.8697,-4.8806,-4.8931,-4.9031,-4.9249,-4.9257,-4.9369,-4.9335,-4.953,-4.9352,-4.9367,-4.9344,-4.9339,-4.9354,-4.9568,-4.9574,-4.9579,-4.9583,0,-4.7804,-4.7787,-4.8003,-4.8044,-4.8059,-4.821,-4.8244,-4.8363,-4.8357,-4.852,-4.8555,-4.8549,-4.8682,-4.8659,-4.8805,-4.8789,-4.9038,-4.8999,-4.9018,-4.9011,-4.9187,-4.9173,-4.9753,-4.9828,-4.9297,-4.9302,-4.9306,0,-4.7407,-4.7594,-4.7558,-4.7685,-4.7891,-4.784,-4.8046,-4.8062,-4.8112,-4.8239,-4.8149,-4.8271,-4.8221,-4.8338,-4.8314,-4.8512,-4.8538,-4.8539,-4.8532,-4.8551,-4.8552,-4.8597,-4.8576,-4.8503,-4.85,-4.8497,-4.8495,0,-4.701,-4.7208,-4.7413,-4.7455,-4.7518,-4.7615,-4.7646,-4.77,-4.7773,-4.7863,-4.791,-4.8017,-4.8078,-4.8162,-4.8132,-4.8012,-4.8371,-4.82,-4.8373,-4.8375,-4.8459,-4.8455,-4.8969,-4.8491,-4.849,-4.8489,-4.8488,0,-4.6688,-4.6782,-4.7079,-4.713,-4.7184,-4.7318,-4.7422,-4.753,-4.7594,-4.7588,-4.7658,-4.7597,-4.7765,-4.7598,-4.783,-4.7684,-4.7748,-4.7763,-4.7775,-4.7794,-4.7609,-4.7909,-4.8396,-4.8449,-4.7804,-4.7798,-4.7793,0,-4.6241,-4.6536,-4.6496,-4.6779,-4.6913,-4.6805,-4.6952,-4.7011,-4.7016,-4.7128,-4.7131,-4.7261,-4.7131,-4.7168,-4.7285,-4.7295,-4.7485,-4.7267,-4.7435,-4.7441,-4.7427,-4.7873,-4.7955,-4.829,-4.7719,-4.7727,-4.7732,0,-4.5893,-4.5968,-4.6022,-4.6069,-4.614,-4.625,-4.6418,-4.6536,-4.6614,-4.6688,-4.683,-4.7008,-4.6918,-4.6981,-4.6943,-4.7066,-4.7354,-4.6954,-4.6955,-4.7031,-4.7678,-4.7756,-4.7812,-4.7301,-4.731,-4.7317,-4.7674,0,-4.542,-4.5564,-4.5706,-4.5813,-4.5894,-4.6068,-4.6045,-4.6133,-4.6088,-4.6089,-4.6294,-4.6336,-4.6456,-4.6511,-4.6468,-4.6758,-4.6707,-4.661,-4.645,-4.6741,-4.6858,-4.6906,-4.6277,-4.6272,-4.6268,-4.6264,0,0,-4.4999,-4.5205,-4.5156,-4.5318,-4.5384,-4.5271,-4.546,-4.551,-4.5616,-4.5665,-4.5573,-4.5834,-4.5872,-4.6125,-4.6213,-4.626,-4.631,-4.621,-4.6601,-4.6639,-4.6674,-4.68,-4.685,-4.6257,-4.6255,-4.6254,-4.6253,0,-4.4822,-4.4864,-4.5051,-4.5101,-4.5174,-4.5165,-4.521,-4.5262,-4.5272,-4.5472,-4.5377,-4.5496,-4.5705,-4.576,-4.5815,-4.6177,-4.6101,-4.6214,-4.6419,-4.656,-4.6604,-4.6642,-4.6774,-4.6822,-4.6242,-4.6243,-4.6243,0,-4.4479,-4.4517,-4.4605,-4.4748,-4.4795,-4.4934,-4.4759,-4.4913,-4.5016,-4.4885,-4.5086,-4.5106,-4.5176,-4.5416,-4.5523,-4.5444,-4.5911,-4.5758,-4.5783,-4.5796,-4.5932,-4.5984,-4.603,-4.5423,-4.542,-4.5417,0,0,-4.433,-4.4463,-4.4491,-4.4708,-4.4744,-4.4735,-4.4805,-4.4769,-4.4835,-4.4862,-4.4887,-4.4954,-4.5075,-4.5156,-4.5267,-4.5533,-4.5546,-4.5658,-4.5697,-4.5728,-4.5759,-4.5903,-4.5954,-4.5407,-4.5407,-4.5406,0,0,-4.4259,-4.43,-4.4244,-4.4493,-4.4559,-4.4601,-4.4735,-4.4667,-4.4766,-4.4743,-4.4689,-4.4704,-4.4927,-4.4952,-4.4815,-4.521,-4.5052,-4.5084,-4.5188,-4.5236,-4.5274,-4.5266,-4.4644,0,0,0,0,0,-4.4068,-4.4294,-4.4243,-4.4281,-4.4462,-4.4629,-4.4652,-4.4612,-4.4501,-4.4608,-4.4619,-4.4531,-4.4867,-4.4745,-4.4784,-4.4938,-4.5273,-4.5297,-4.5319,-4.5515,-4.5566,-4.5609,0,0,0,0,0,0,-4.4083,-4.413,-4.4237,-4.4289,-4.4329,-4.462,-4.4424,-4.4419,-4.4489,-4.4469,-4.4531,-4.4533,-4.4502,-4.4722,-4.4758,-4.4905,-4.4632,-4.5282,-4.5303,-4.5321,-4.5533,-4.5575,-4.561,0,0,0,0,0,-4.4094,-4.4132,-4.4432,-4.4285,-4.432,-4.4321,-4.4415,-4.441,-4.4463,-4.448,-4.4478,-4.4427,-4.4507,-4.4534,-4.4743,-4.489,-4.4607,-4.462,-4.5295,-4.5311,-4.5326,-4.5553,0,0,0,0,0,0,-4.4103,-4.4128,-4.4438,-4.4448,-4.4197,-4.4304,-4.432,-4.4402,-4.4467,-4.4469,-4.4371,-4.4355,-4.4514,-4.4533,-4.4555,-4.4887,-4.4587,-4.46,-4.4609,-4.5308,-4.532,-4.5331,0,0,0,0,0,0,-4.4107,-4.4137,-4.4443,-4.4334,-4.433,-4.4289,-4.4303,-4.4474,-4.447,-4.4355,-4.4343,-4.4363,-4.4481,-4.4534,-4.455,-4.4819,-4.4571,-4.4584,-4.4593,-4.4599,-4.5318,-4.5327,0,0,0,0,0,0,-4.4119,-4.4144,-4.4331,-4.4329,-4.4325,-4.4424,-4.4439,-4.4626,-4.4377,-4.4354,-4.4353,-4.4342,-4.4485,-4.45,-4.4548,-4.481,-4.4817,-4.4571,-4.458,-4.4587,-4.4591,0,0,0,0,0,0,0,-4.4128,-4.3969,-4.4384,-4.4324,-4.432,-4.4532,-4.4535,-4.4537,-4.4374,-4.4365,-4.4356,-4.4347,-4.4496,-4.4511,-4.4525,-4.4803,0,0,-4.457,-4.4577,0,0,0,0,0,0,0,0,-4.3958,-4.3967,-4.4385,-4.4387,-4.4389,-4.4533,-4.4535,-4.4537,-4.4373,-4.4365,-4.4358,-4.435,-4.45,-4.4512,-4.4524,0,0,0,0,0,0,0,0,0,0,0,0,0,0,0,-4.4385,-4.4386,0,-4.4533,-4.4534,-4.4536,-4.4372,-4.4365,-4.4359,-4.4353,-4.4503,-4.4513,-4.4523,0,0,0,0,0,0,0,0,0,0,0,0,0,0,0,0,0,0,0,0,0,0,0,0,0,0,0,0,0,0,0,0,0,0,0,0,0,0,0,0,0,0,0,0,0,0,0,0,0,0,0,0,0,0,0,0,0,0,0,0,0,0,0,0,0,0,0,0,0]}],[{"header":{"parameterUnit":"kt","parameterCategory":2,"dx":1,"dy":1,"la1":30.253999710083008,"la2":30.299108505249023,"lo1":-89.0895004272461,"lo2":-89.04439544677734,"nx":28,"ny":28,"refTime":"2022-09-20T09:00:00:Z","depth":0,"parameterNumber":2,"parameterNumberName":"V-component_of_WINDS"},"data":[-4.7367,-4.7579,-4.7654,-4.7931,-4.8044,-4.8247,-4.8343,-4.8475,-4.8599,-4.8848,-4.9005,-4.9102,-4.9256,-4.9461,-4.9634,-4.9674,-4.9742,-4.9762,-4.9805,-4.9646,-4.9629,-4.9613,-4.9567,-4.9776,-4.9777,-4.9959,-4.9961,-4.9962,-4.7241,-4.7355,-4.7524,-4.7738,-4.7883,-4.7908,-4.808,-4.8199,-4.838,-4.8534,-4.8693,-4.8919,-4.9108,-4.9258,-4.9452,-4.9553,-4.9576,-4.96,-4.9594,-4.9617,-4.945,-4.94,-4.9578,-4.9578,-4.9578,-4.9578,-4.9578,-4.9578,-4.7032,-4.7157,-4.733,-4.7514,-4.7642,-4.7785,-4.7917,-4.8034,-4.82,-4.8412,-4.8469,-4.8675,-4.8844,-4.9115,-4.9225,-4.9387,-4.9374,-4.9424,-4.9437,-4.9448,-4.9449,-4.9173,-4.9424,-4.9424,-4.9424,-4.9423,-4.9423,0,-4.6902,-4.6956,-4.7123,-4.7313,-4.7452,-4.7606,-4.776,-4.7844,-4.7985,-4.8117,-4.8313,-4.844,-4.8689,-4.8882,-4.9081,-4.9186,-4.9226,-4.9239,-4.9274,-4.9248,-4.9199,-4.9227,-4.895,-4.9231,-4.923,-4.9229,-4.9228,-4.9228,-4.6696,-4.6834,-4.7052,-4.7159,-4.7262,-4.7434,-4.7552,-4.7666,-4.7786,-4.7993,-4.8098,-4.8294,-4.8457,-4.876,-4.8896,-4.9082,-4.9104,-4.9202,-4.9132,-4.9101,-4.9105,-4.9095,-4.911,-4.9213,-4.9215,-4.9217,-4.9218,0,-4.6573,-4.6696,-4.6933,-4.7136,-4.7192,-4.733,-4.7504,-4.7634,-4.7733,-4.7926,-4.7978,-4.8135,-4.8326,-4.8447,-4.8691,-4.8748,-4.8977,-4.8993,-4.8919,-4.8928,-4.9029,-4.9017,-4.9336,-4.9383,-4.9168,-4.917,-4.9171,0,-4.6446,-4.6622,-4.6795,-4.6926,-4.7126,-4.7236,-4.7431,-4.7536,-4.7685,-4.7838,-4.7903,-4.8045,-4.8178,-4.8338,-4.8423,-4.8631,-4.8677,-4.8733,-4.8754,-4.8728,-4.8721,-4.8793,-4.8783,-4.8795,-4.8794,-4.8792,-4.8791,0,-4.624,-4.654,-4.6754,-4.6842,-4.7077,-4.7175,-4.7277,-4.7445,-4.756,-4.7728,-4.7804,-4.7992,-4.8096,-4.824,-4.8347,-4.8295,-4.8606,-4.8556,-4.8663,-4.8661,-4.8726,-4.872,-4.8972,-4.8789,-4.8788,-4.8788,-4.8787,0,-4.6156,-4.6324,-4.6616,-4.6813,-4.6888,-4.7029,-4.7222,-4.7371,-4.7543,-4.7606,-4.774,-4.7798,-4.7991,-4.7932,-4.82,-4.8101,-4.8199,-4.8271,-4.8281,-4.8305,-4.8236,-4.8361,-4.8589,-4.8618,-4.8327,-4.8324,-4.832,0,-4.5886,-4.6214,-4.6312,-4.6588,-4.6756,-4.6818,-4.6977,-4.7128,-4.7225,-4.7382,-4.749,-4.7668,-4.765,-4.7723,-4.784,-4.7958,-4.8086,-4.7944,-4.8169,-4.8175,-4.812,-4.8331,-4.8335,-4.8526,-4.8273,-4.8278,-4.8281,0,-4.5692,-4.5977,-4.602,-4.6125,-4.6343,-4.6485,-4.6667,-4.6869,-4.6968,-4.7131,-4.7287,-4.7541,-4.7538,-4.7658,-4.7725,-4.784,-4.8003,-4.7822,-4.7828,-4.785,-4.8259,-4.8261,-4.8293,-4.8022,-4.8028,-4.8033,-4.8244,0,-4.5537,-4.5717,-4.5838,-4.6068,-4.6196,-4.6376,-4.6506,-4.6624,-4.6675,-4.6774,-4.7006,-4.7163,-4.7369,-4.7437,-4.749,-4.7714,-4.7696,-4.769,-4.7643,-4.778,-4.7853,-4.7883,-4.7524,-4.7523,-4.7522,-4.7522,0,0,-4.5248,-4.551,-4.5612,-4.5794,-4.5909,-4.5971,-4.6151,-4.6271,-4.651,-4.6588,-4.6562,-4.6943,-4.7072,-4.734,-4.7393,-4.7477,-4.7529,-4.7476,-4.7714,-4.7735,-4.7754,-4.783,-4.7858,-4.7521,-4.7521,-4.7521,-4.7521,0,-4.5218,-4.5348,-4.5525,-4.5654,-4.5847,-4.5943,-4.5985,-4.6188,-4.626,-4.6489,-4.6537,-4.6692,-4.6994,-4.7124,-4.7229,-4.7447,-4.7475,-4.75,-4.7573,-4.7704,-4.7725,-4.7745,-4.7822,-4.7849,-4.7519,-4.7519,-4.7519,0,-4.505,-4.52,-4.5299,-4.5564,-4.5691,-4.5863,-4.5845,-4.6028,-4.6157,-4.6216,-4.6442,-4.6547,-4.6732,-4.6969,-4.708,-4.706,-4.7418,-4.7328,-4.7335,-4.7351,-4.7484,-4.7509,-4.7532,-4.7231,-4.7229,-4.7228,0,0,-4.5006,-4.5175,-4.5372,-4.5567,-4.5644,-4.579,-4.5895,-4.5958,-4.6123,-4.6188,-4.6324,-4.6483,-4.6659,-4.6773,-4.6946,-4.7188,-4.7235,-4.7287,-4.7301,-4.7312,-4.7332,-4.7468,-4.7493,-4.7222,-4.7222,-4.7221,0,0,-4.4986,-4.5221,-4.5244,-4.5488,-4.5642,-4.5849,-4.5963,-4.5997,-4.6166,-4.6159,-4.6275,-4.6322,-4.6546,-4.6648,-4.6554,-4.6931,-4.6881,-4.6906,-4.6857,-4.6876,-4.6889,-4.686,-4.6558,0,0,0,0,0,-4.5022,-4.5192,-4.521,-4.5271,-4.5606,-4.5838,-4.5882,-4.5981,-4.5943,-4.6032,-4.615,-4.6173,-4.6621,-4.6541,-4.6599,-4.6702,-4.7147,-4.716,-4.7173,-4.7166,-4.7185,-4.72,0,0,0,0,0,0,-4.5047,-4.512,-4.5206,-4.5418,-4.5494,-4.5833,-4.5791,-4.5823,-4.5936,-4.5937,-4.615,-4.618,-4.6269,-4.6518,-4.6569,-4.6665,-4.6541,-4.7152,-4.7163,-4.7173,-4.7173,-4.7188,-4.7201,0,0,0,0,0,-4.5067,-4.5126,-4.5638,-4.5416,-4.5483,-4.5655,-4.5785,-4.5812,-4.5901,-4.6086,-4.6116,-4.5966,-4.6269,-4.6319,-4.6549,-4.6639,-4.6506,-4.6525,-4.7159,-4.7168,-4.7176,-4.718,0,0,0,0,0,0,-4.5082,-4.5152,-4.5653,-4.5677,-4.536,-4.5638,-4.5685,-4.5801,-4.6044,-4.6077,-4.5906,-4.5904,-4.6271,-4.6309,-4.6347,-4.6625,-4.6478,-4.6497,-4.6509,-4.7166,-4.7173,-4.7179,0,0,0,0,0,0,-4.5121,-4.5171,-4.5666,-4.5589,-4.5605,-4.5622,-4.5664,-4.5874,-4.6046,-4.5851,-4.5857,-4.5902,-4.6214,-4.6304,-4.6333,-4.6658,-4.6457,-4.6475,-4.6487,-4.6495,-4.7172,-4.7177,0,0,0,0,0,0,-4.5144,-4.5188,-4.5583,-4.5595,-4.5609,-4.5885,-4.5809,-4.6148,-4.5979,-4.584,-4.5967,-4.5962,-4.6208,-4.624,-4.6323,-4.6635,-4.6652,-4.6457,-4.647,-4.6478,-4.6484,0,0,0,0,0,0,0,-4.5163,-4.4846,-4.5511,-4.5601,-4.5613,-4.5898,-4.5905,-4.5911,-4.5978,-4.5973,-4.5968,-4.5964,-4.6354,-4.6373,-4.6393,-4.6616,0,0,-4.6456,-4.6464,0,0,0,0,0,0,0,0,-4.483,-4.4842,-4.5512,-4.5517,-4.5522,-4.5899,-4.5905,-4.591,-4.5977,-4.5973,-4.5969,-4.5966,-4.6359,-4.6375,-4.6391,0,0,0,0,0,0,0,0,0,0,0,0,0,0,0,-4.5513,-4.5517,0,-4.59,-4.5904,-4.5909,-4.5977,-4.5974,-4.597,-4.5967,-4.6363,-4.6376,-4.639,0,0,0,0,0,0,0,0,0,0,0,0,0,0,0,0,0,0,0,0,0,0,0,0,0,0,0,0,0,0,0,0,0,0,0,0,0,0,0,0,0,0,0,0,0,0,0,0,0,0,0,0,0,0,0,0,0,0,0,0,0,0,0,0,0,0,0,0,0]}]]]